Location: Asheville, NC
(35.6000°N, 82.5500°W)
Time: 23:54:41

Vanguard 2 Rocket - Pass Details

Date: 10 March 2018
Orbit: 554 x 3327 km, 32.9° (Epoch: 19 March)

Event Time Altitude Azimuth Distance (km) Brightness Sun altitude
Rises 18:24:09 0° 244° (WSW) 2,756 11.0 1.1°
Reaches altitude 10° 18:26:10 10° 239° (WSW) 1,944 9.9 0.7°
Maximum altitude 18:30:19 50° 163° (SSE) 932 7.0 -0.2°
Drops below altitude 10° 18:36:27 10° 89° (E) 2,862 8.8 -1.4°
Enters shadow 18:39:09 - 86° (E) 3,905 9.4 -2.0°
Sets 18:40:01 0° 85° (E) 4,238 - -2.1°
